GSAT0219 (PRN E36) (43566 NORAD) Tracking and Keplerian Element Data

This shows tracking and keplerian element data for the satellite.

Feedback or suggestion? Click here.




ElementValue
Catalog43566
NameGSAT0219 (PRN E36)
Epoch Orbit187
Epoch Day314.78834885
Epoch Year2018
RAAN57.1317
Inclination56.4056
Eccentricity0.0003675
Argument of Perigee251.5115
Mean Anonmoly108.4468
Mean Motion1.7047638
Decay Rate-7E-07
L11 43566U 18060C 18314.78834885 -.00000070 00000-0 00000+0 0 9994
L22 43566 56.4056 57.1317 0003675 251.5115 108.4468 1.70476380 1870

Live tracking and technical data element details for GSAT0219 (PRN E36) (NORAD 43566). GSAT0219 (PRN E36) can be tracked NOW for your location showing map with azimuth and elevation plus other details from your city location.

Track the satellite on the map from your city or location and see movement details for azimuth, elevation, latitude, longitude, range, height, and movement on the map or in text.







IsCatalogInMostPopularTable: catalog: 43566, numindb: 35
Update: records affected: 1



GetName: 43566 GSAT0219 (PRN E36)

Hit Count: updated at: Thu, 15 Nov 2018 04:55:50 GMT